787  
ASUS44 KFWD 180915  
RWRFWD  
NORTH TEXAS HOURLY WEATHER ROUNDUP  
NATIONAL WEATHER SERVICE FORT WORTH TX  
400 AM CDT MON JUN 18 2018  
 
NOTE: "FAIR" INDICATES FEW OR NO CLOUDS BELOW 12,000 FEET WITH NO  
SIGNIFICANT WEATHER AND/OR S TO VISIBILITY
.  
 
TXZ118-119-181000-  
DALLAS/FORT WORTH METROPLEX  
 
CITY SKY/WX TMP DP RH WIND PRES REMARKS
 
DFW AIRPORT MOCLDY 78 73 84 SE13 29.94S  
DALLAS LOVE CLOUDY 79 73 82 S16 29.96R  
FTW MEACHAM CLOUDY 81 73 76 SE18 29.95R  
DAL-EXECUTIVE CLOUDY 78 73 84 SE13 29.96R  
FTW-ALLIANCE CLOUDY 80 73 79 S18 29.95R  
FTW-NAS-JRB CLOUDY 80 71 74 SE15 29.95S  
FTW-SPINKS CLOUDY 78 71 78 SE10 29.97R  
ARLINGTON CLOUDY 78 73 84 SE15 29.95S  
GRAND PRAIRIE CLOUDY 79 69 73 SE10G18 29.97S  
ADDISON CLOUDY 78 72 80 S15 29.98R  
MESQUITE FAIR 76 72 89 SE8 29.96S  
LANCASTER CLOUDY 76 72 87 SE7 29.97R  

 
 
TXZ091>094-102>105-117-120-121-131>134-181000-  
NORTH CENTRAL TEXAS  
 
CITY SKY/WX TMP DP RH WIND PRES REMARKS
 
SHRMAN/DENISON CLOUDY 78 71 78 S17 29.98S  
BOWIE CLOUDY 77 71 81 SE12G17 29.96R  
BRIDGEPORT CLOUDY 78 70 75 S7 29.97R  
DECATUR CLOUDY 78 71 79 SE9 29.97R  
DENTON CLOUDY 79 72 79 SE8 29.95S  
MCKINNEY MOCLDY 78 72 81 SE13 29.97R  
BONHAM MOCLDY 75 71 87 SE9 29.98S  
GREENVILLE MOCLDY 79 72 78 SE10 29.98R  
ROCKWALL MOCLDY 76 72 86 SE8 29.97S  
TERRELL FAIR 77 71 82 SE8 29.97S  
WAXAHACHIE CLOUDY 76 72 86 SE10G16 29.98R  
CLEBURNE CLOUDY 77 73 88 SE9 29.97R  
GRANBURY CLOUDY 80 72 75 E9 29.95S  

 
 
TXZ083>090-098>101-113>116-127>130-139>142-154-155-181000-  
WESTERN NORTH TEXAS  
 
CITY SKY/WX TMP DP RH WIND PRES REMARKS
 
WICHITA FALLS FAIR 77 69 76 S15 29.94R  
WF-KICKAPOO FAIR 78 70 77 S12G18 29.97R  
VERNON FAIR 79 68 68 SE7 29.95S  
ABILENE FAIR 75 69 81 S10 29.96S  
ABILENE-DYESS FAIR 76 65 69 SE13 29.95S  
GRAHAM MOCLDY 77 72 84 SE6 29.95R  
BRECKENRIDGE MOCLDY 78 69 73 SE8 29.96R  
CISCO CLOUDY 77 70 78 S13 29.97S  
EASTLAND CLOUDY 76 70 83 SE7 29.97R  
RANGER CLOUDY 75 71 85 S5 29.97S  
MINERAL WELLS CLOUDY 78 71 79 SE12 29.93S  
STEPHENVILLE CLOUDY 77 71 81 SE9 29.98S  
COMANCHE CLOUDY 77 72 86 MISG 29.97R  
COLEMAN MOCLDY 76 69 77 SE8 29.97R  
BRADY CLOUDY 75 70 83 SE6 29.97S  

 
 
TXZ143>147-156>162-174-175-181000-  
CENTRAL TEXAS  
 
CITY SKY/WX TMP DP RH WIND PRES REMARKS
 
WACO CLOUDY 79 72 79 SE10 29.93F  
WACO-MCGREGOR MOCLDY 77 73 87 SE10 29.94S  
HILLSBORO CLOUDY 78 73 83 SE13 29.95R  
CORSICANA CLOUDY 76 73 91 SE9 29.97S  
MEXIA CLOUDY 74 72 91 SE9 29.94S FOG  
HEARNE FAIR 75 74 98 E5 29.93S  
CAMERON CLOUDY 76 74 94 SE5 29.92S  
TEMPLE CLOUDY 75 73 94 SE9 29.94S  
KILLEEN CLOUDY 76 71 84 SE12 29.92F  
KILLEEN-SKYLRK CLOUDY 77 72 84 SE12 29.93F  
FORT HOOD CLOUDY 77 72 83 SE9 29.90F  
GATESVILLE FAIR 77 72 83 SE7G15 29.95F  
HAMILTON CLOUDY 77 72 83 SE10 29.97R  
LAMPASAS MOCLDY 75 71 86 SE8 29.93F  

 
 
TXZ095>097-106>112-122>126-135>138-148>153-164>167-181000-  
EAST TEXAS  
 
CITY SKY/WX TMP DP RH WIND PRES REMARKS
 
PARIS CLOUDY 76 72 87 SE13 30.01R  
SULPHUR SPRNGS FAIR 76 72 87 SE8 30.01R  
MOUNT PLEASANT FAIR 74 72 91 SE8 30.02S  
GILMER CLOUDY 75 71 86 SE9 30.00S  
MINEOLA MOCLDY 75 72 88 SE3 29.99S  
TYLER NOT AVBL  
LONGVIEW MOCLDY 76 73 91 SE9 30.00S  
MARSHALL FAIR 71 68 90 CALM 30.04S  
ATHENS CLOUDY 73 72 94 SE6 29.96S  
PALESTINE MOCLDY 76 72 87 E10 29.98S  
JACKSONVILLE MOCLDY 74 72 93 SE5 30.02S  
HENDERSON CLOUDY 74 71 89 SE7 30.01S  
CENTER PTSUNNY 72 71 96 CALM 30.02S  
NACOGDOCHES N/A 74 72 93 SE7 30.00S  
LUFKIN CLOUDY 74 72 93 E8 29.97S  

 
 
SUPPLEMENTAL OBSERVATIONS (NWS FORT WORTH AREA)  
 
CITY SKY/WX TMP DP RH WIND PRES REMARKS
 
DENISON DAM N/A 79 72 78 SE7 N/A  
POSSUM KINGDOM N/A 77 70 78 SE7 N/A  
GRANBURY N/A 79 72 78 SE9G17 N/A  
MCGREGOR N/A 75 72 88 S7 N/A  
TEMPLE N/A 75 72 88 E5 N/A  
ATHENS N/A 75 72 88 SE14 N/A  
PALESTINE N/A 75 72 88 E5 N/A  

 
 
SUPPLEMENTAL OBSERVATIONS (NWS NORMAN AREA)  
 
CITY SKY/WX TMP DP RH WIND PRES REMARKS
 
GOODLETT N/A 79 66 64 SE10 29.95S  
ODELL N/A 78 69 72 SE12 29.96S  
CROWELL N/A 78 69 73 S10 29.96S  
KNOX CITY N/A 78 68 71 SE13 29.95S  
SEYMOUR N/A 77 67 69 SE10 29.96R  

 
 
SUPPLEMENTAL OBSERVATIONS (NWS SAN ANGELO AREA)  
 
CITY SKY/WX TMP DP RH WIND PRES REMARKS
 
WEINERT N/A 77 69 74 SE9 29.96S  
HASKELL N/A 77 66 68 SE9 29.95S  
THROCKMORTON N/A 74 69 84 SE7 29.97S  
STAMFORD N/A 77 69 76 SE9 29.97R  
CLYDE N/A 74 69 86 SE8 29.99S  
HAMBY N/A 75 68 78 SE5 N/A  
IVIE RESERVOIR N/A 75 68 78 E9 N/A  
COLORADO BEND N/A 75 72 88 E5 N/A  

 
 
SUPPLEMENTAL OBSERVATIONS (NWS SHREVEPORT AREA)  
 
CITY SKY/WX TMP DP RH WIND PRES REMARKS
 
TEXARKANA N/A 72 70 94 CALM N/A  
LINDEN N/A 73 68 83 E2 N/A  
CADDO LAKE N/A 72 68 88 CALM N/A  
LUFKIN N/A 75 70 83 MISG N/A  
N SABINE NF N/A 73 72 94 MISG N/A  

 
 
SUPPLEMENTAL OBSERVATIONS ARE A COLLECTION OF AUTOMATED INSTRUMENTS  
THAT ARE MAINTAINED BY A VARIETY OF FEDERAL AND STATE AGENCIES.  
CERTAIN ELEMENTS...SUCH AS HUMIDITY VALUES AND SUSTAINED WIND  
SPEEDS...MAY BE APPROXIMATED.  
 
 
 
CLICK HERE TO GO TO PREVIOUS BULLETINS.

The Nexlab TX Page Main Text Page